This is the latest recevied weather packets stored in our database for station/object KE5KUL-13. If no packets are shown the sender has not sent any weather packets the latest 10 day(s).
| Time | Temp. | Humidity | Pressure | Rain* | Wind** | Luminosity | Snow |
|---|---|---|---|---|---|---|---|
| 1777573818 | 18.89° C | 37% | 1018.3 hPa | 0 mm | - | - | - |
| 1777573218 | 19.44° C | 36% | 1018.9 hPa | 0 mm | - | - | - |
| 1777572619 | 19.44° C | 36% | 1019.1 hPa | 0 mm | - | - | - |
| 1777570819 | 18.89° C | 39% | 1019.4 hPa | 0 mm | - | - | - |
| 1777570217 | 18.33° C | 42% | 1019.4 hPa | 0 mm | - | - | - |
| 1777568418 | 17.78° C | 46% | 1019.5 hPa | 0 mm | - | - | - |
| 1777565418 | 14.44° C | 58% | 1019.5 hPa | 0 mm | - | - | - |
| 1777564818 | 13.89° C | 61% | 1019.2 hPa | 0 mm | - | - | - |
| 1777563018 | 12.78° C | 63% | 1019.4 hPa | 0 mm | - | - | - |
| 1777562418 | 12.22° C | 64% | 1019.4 hPa | 0 mm | - | - | - |
| 1777561218 | 11.67° C | 66% | 1019.4 hPa | 0 mm | - | - | - |
| 1777558818 | 10° C | 71% | 1019.5 hPa | 0 mm | - | - | - |
| 1777558218 | 9.44° C | 72% | 1019.7 hPa | 0 mm | - | - | - |
| 1777555818 | 8.89° C | 73% | 1019.9 hPa | 0 mm | - | - | - |
| 1777555218 | 8.89° C | 73% | 1019.6 hPa | 0 mm | - | - | - |
| 1777554618 | 8.89° C | 73% | 1019.8 hPa | 0 mm | - | - | - |
| 1777554018 | 8.89° C | 73% | 1019.5 hPa | 0 mm | - | - | - |
| 1777553418 | 8.33° C | 73% | 1019.6 hPa | 0 mm | - | - | - |
| 1777551618 | 8.33° C | 72% | 1019.8 hPa | 0 mm | - | - | - |
| 1777551018 | 8.33° C | 72% | 1019.8 hPa | 0 mm | - | - | - |
| 1777550418 | 8.89° C | 71% | 1019.7 hPa | 0 mm | - | - | - |
| 1777548618 | 8.89° C | 70% | 1019.5 hPa | 0 mm | - | - | - |
| 1777548018 | 8.89° C | 70% | 1019.4 hPa | 0 mm | - | - | - |
| 1777547418 | 8.89° C | 69% | 1019.8 hPa | 0 mm | - | - | - |
| 1777545618 | 8.89° C | 69% | 1019.4 hPa | 0 mm | - | - | - |
* Rain latest hour (hover to see other rain measurements)
** Current wind speed in m/s (hover to see current wind gust speed)